Flag for Switzerland Weather past 2 weeks in Bülach, Zurich, Switzerland

Now
57 °F

Drizzle. Low clouds.


Feels Like: 57 °F
Forecast: 56 / 71 °F
Wind: 5 mph from South

Location: Zurich-Kloten

Current Time: May 3, 2015 at 12:02:29 PM

Latest Report: May 3, 2015 at 11:00 AM


Visibility: 6 mi

Pressure: 29.81 "Hg

Humidity: 93%

Dew point: 55 °F

Location of BülachLocation

Historic Weather in Bülach — Graph

°F

Bülach temperature yesterday

Maximum temperature yesterday: 62 °F (at 2:00 PM)
Minimum temperature yesterday: 53 °F (at 6:00 AM)
Average temperature yesterday: 57 °F

Past Weeks' High & Low Weather Summary

 TemperatureHumidityPressure
High73 °F (Apr 22, 4:00 PM)100% (Apr 29, 4:00 AM)30.39 "Hg (Apr 29, 4:00 AM)
Low33 °F (Apr 19, 7:00 AM)20% (Apr 22, 7:00 PM)29.41 "Hg (Apr 27, 6:00 PM)
Average53 °F66%29.99 "Hg
* Reported Apr 18 10:00 AM — May 3 10:00 AM, Bülach, Weather by CustomWeather, © 2015

Note: Actual official high and low records may vary slightly from our data, if they occured in-between our weather recording intervals... More about our weather records

Advertising

Bülach weather history for previous 24 hours

 ConditionsComfort  
Time TempWeatherWind HumidityBarometerVisibility
10:00 AM
Sun, May 3
57 °FCool.5 mph92%29.81 "HgN/A
9:00 AM57 °FCool.3 mph92%29.80 "HgN/A
8:00 AM56 °FLight rain. Low clouds.6 mph93%29.81 "Hg5 mi
7:00 AM54 °FCool.8 mph92%29.80 "HgN/A
6:00 AM54 °FCool.7 mph94%29.79 "HgN/A
5:00 AM54 °FLight rain. Low clouds.9 mph91%29.79 "Hg7 mi
4:00 AM54 °FCool.12 mph91%29.79 "HgN/A
3:00 AM53 °FCool.9 mph95%29.80 "HgN/A
2:00 AM53 °FRain. Low clouds.6 mph94%29.82 "Hg4 mi
1:00 AM53 °FCool.7 mph94%29.85 "HgN/A
12:00 AM54 °FCool.3 mph92%29.86 "HgN/A
11:00 PM
Sat, May 2
54 °FSprinkles. Overcast.3 mph94%29.88 "Hg7 mi
10:00 PM54 °FCool.1 mph94%29.89 "HgN/A
9:00 PM54 °FCool.2 mph94%29.88 "HgN/A
8:00 PM55 °FRain showers. Overcast.5 mph91%29.89 "Hg3 mi
7:00 PM58 °FCool.5 mph79%29.85 "HgN/A
6:00 PM60 °FCool.5 mph74%29.86 "HgN/A
5:00 PM60 °FOvercast.6 mph73%29.85 "Hg22 mi
4:00 PM60 °FCool.10 mph73%29.86 "HgN/A
3:00 PM62 °FCool.7 mph67%29.86 "HgN/A
2:00 PM62 °FOvercast.5 mph65%29.85 "Hg22 mi
1:00 PM61 °FCool.7 mph70%29.86 "HgN/A
12:00 PM59 °FCool.10 mph71%29.88 "HgN/A
Weather by CustomWeather, © 2015

See weather overviewHow to use our weather pages